weather.gov     
National Weather Service

Regional Weather Roundup
NWS Homepage
This page is being discontinued on March 12, 2014.
The same data is available at this site. Please update your bookmarks.
Thank you, and we apologize for the inconvenience.
Please send an email to SR-SRH.Webmaster@noaa.gov with any concerns.


Current Version
Previous Version:    01  02  03  04  05  06  07  08  09  10  11  12  13  14  15  16  17  18  19  20  21  22  23  24  25  26  27  28  29  30  
   31  32  33  34  35  36  37  38  39  40  41  42  43  44  45  46  47  48  49  50  51  52  53  
[Printable]
694
ASUS41 KCTP 261210
RWRCTP

REGIONAL WEATHER ROUNDUP
NATIONAL WEATHER SERVICE STATE COLLEGE PA
700 AM EST WED NOV 26 2014

Note: "fair" indicates few or no clouds below 12,000 feet with no
significant weather and/or obstructions to visibility.

* = STATION THAT DOES NOT REPORT PRECIPITATION /E.G. RAIN...SNOW...ETC/
    THUNDER OR FOG.

PAZ002>004-007>009-013>016-020>023-029>032-261300-
WESTERN PENNSYLVANIA

CITY           SKY/WX    TMP DP  RH WIND       PRES   REMARKS
ERIE           CLOUDY    34  25  69 CALM      30.15S
MEADVILLE      CLOUDY    31  23  72 NE5       30.09S
FRANKLIN*      CLOUDY    28  21  74 NE6       30.09R
NEW CASTLE       N/A     29  26  88 CALM      30.10F
BEAVER COUNTY  MOCLDY    30  27  86 NE5       30.06
BUTLER*        CLOUDY    28  25  86 NE6       30.07F
PITTSBURGH INT CLOUDY    31  25  78 N7        30.07R
PITTSBURGH     CLOUDY    33  23  66 VRB3      30.06R
INDIANA*       CLOUDY    32  25  74 E6        30.06F
LATROBE        MOCLDY    32  28  86 NE7       30.05F
WASHINGTON CO* CLOUDY    30  25  80 NE5       30.06R
$$

PAZ004>006-010>012-017>019-024>028-033>037-041-042-045-046-049>053-261300-
CENTRAL PENNSYLVANIA

CITY           SKY/WX    TMP DP  RH WIND       PRES   REMARKS
BRADFORD       CLOUDY    30  23  75 E6        30.07F
DUBOIS         CLOUDY    29  24  82 NE6       30.04F
CLEARFIELD     CLOUDY    30  25  81 NE5       30.07F
JOHNSTOWN      CLOUDY    30  23  75 E7        30.01S
ALTOONA        CLOUDY    33  27  78 E5        30.06F
STATE COLLEGE  CLOUDY    32  27  80 NE7       30.07F
WILLIAMSPORT   CLOUDY    35  29  78 CALM      30.13F
SELINSGROVE    CLOUDY    39  29  67 VRB3      30.13F
FT INDIANTOWN  LGT RAIN  41  30  65 NE8       30.11S
CAPITAL CITY   LGT RAIN  41  33  73 E5        30.10F
HARRISBURG     LGT RAIN  39  34  82 E3        30.10F
YORK           RAIN      39  36  89 E7        30.09F FOG
$$

PAZ038>040-043-044-047-048-054-055-060>062-067>071-261300-
EASTERN PENNSYLVANIA

CITY           SKY/WX    TMP DP  RH WIND       PRES   REMARKS
SCRANTON       CLOUDY    38  28  67 NE9       30.15S
MOUNT POCONO   CLOUDY    34  26  72 N6        30.10R
ALLENTOWN      LGT RAIN  42  30  62 NE5       30.15R
QUAKERTOWN*    CLOUDY    39  34  81 NE3       30.14R
READING        LGT RAIN  42  32  67 NE8       30.13R
LANCASTER      LGT RAIN  40  33  76 NE12      30.11R
COATESVILLE    HVY RAIN  39  37  93 N9        30.08F
POTTSTOWN      RAIN      39  34  82 NE10      30.13R
BLUE BELL      CLOUDY    41  36  81 CALM      30.11R
DOYLESTOWN     LGT RAIN  39  35  86 N9        30.12R
WILLOW GROVE   NOT AVBL
NORTH PHILA    LGT RAIN  43  36  76 NE9       30.14R
PHILADELPHIA   LGT RAIN  43  38  82 E8        30.12S
$$




U.S. Dept. of Commerce
NOAA National Weather Service
1325 East West Highway
Silver Spring, MD 20910
E-mail: w-nws.webmaster@noaa.gov
Page last modified: May 16, 2007
NATIONAL WEATHER SERVICE: for Safety, for Work, for Fun - FOR LIFE